Find NOAA 2

NORAD ID: 6235 Int'l Des: 1972-082 Owner: NOAA Country: US operational
LEOCIRCULARRETROGRADESSO

当前视图

正在加载3D地球...

关于 NOAA 2

正在加载描述...

即将过境

Passes for default location (London). Set your location on the main map for personalized predictions.

高度历史

Loading altitude history...

两行轨道根数

1 6235U 72082A 26150.07182597 -.00000017 00000-0 18559-3 0 9998
2 6235 102.0078 168.4446 0004004 198.9359 178.0462 12.53214459452680
Epoch: May 30, 2026 • Age: 10 hours

当前状态

高度 1451.0 km
速度 7.14 km/s
星下点 -2.80°S, 82.51°W
类型 weather

Most Searched